User: anonymous   Login
Location: Unspecified
(0.0000°N, 0.0000°E)
Time: 04:57:08
(UTC+00:00)
Language:

CANX 3A (UNIBRITE) - Orbit

View from above orbital plane
View from above orbital plane
View from above satellite
View from above satellite

Ground track
Ground track

The orbit data is extracted from the following two-line orbital elements,

1 39092U 13009G   17141.60758805 +.00000027 +00000-0 +24912-4 0  9990
2 39092 098.5537 346.3825 0009921 026.9784 333.1915 14.34901399221665
Epoch (UTC): 21 May 2017 14:34:55
Eccentricity: 0.0009921
inclination: 98.5537°
perigee height: 768 km
apogee height: 782 km
right ascension of ascending node: 346.3825°
argument of perigee: 26.9784°
revolutions per day: 14.34901399
mean anomaly at epoch: 333.1915°
orbit number at epoch: 22166

The dashed part of the orbit path shows where the satellite is in the earth's shadow,  

DLR